Back to catalog

ATLAS 28E R/B

AlivePO
NORAD 20563·ROCKET BODY·🇺🇸 United States

Launched Apr 11, 1990 from Vandenberg Space Force Base

Loading…

Next Passes (next 24 hours)

TLE

FreshSource: Space-Track

Epoch: Sep 14, 2026, 10:26 UTC

1 20563U 90031D   26257.43519525  .00000626  00000-0  77492-4 0  9992
2 20563  89.8686 255.0787 0056174 216.4306 143.3090 14.80505246383753

Track ATLAS 28E R/B in real time with AllMySat

Download on the App Store